Retour au catalogue

THOR ABLESTAR DEB

ActifLEO
NORAD 148·DEBRIS·🇺🇸 United States

Lancé Jun 29, 1961 depuis Cape Canaveral Space Force Station

Loading…

Prochains Passages (prochaines 24 heures)

TLE

FraisSource: Space-Track

Époque: Sep 9, 2026, 00:08 UTC

1 00148U 61015AJ  26252.00579253  .00000372  00000-0  23030-3 0  9997
2 00148  65.7690 253.5789 0152127 278.3966  79.9894 14.10961326770807

Suivez THOR ABLESTAR DEB en temps réel avec AllMySat

Download on the App Store